Multibeam Report for AT26-15


Ship Name: Atlantis
Chief Scientist: Van Dover, Cindy
William & Mary
Source Organization: UNOLS R2R
Start Date: 2014-05-21
End Date: 2014-06-14


View ISO Metadata

Visit the full NCEI Bathymetry Viewer


Multibeam Bathymetry

Cruise Details

Project: Connectivity in Western Atlantic Seep Populations (SeepC)
Instrument: Kongsberg EM122

Data Quality

Number of Files: 135
Number of Records: 186387
BATHYMETRY DATA Quantity Percentage
Number of Beams 80491536 100%
Number of Good Beams 79658691 98.97%
Number of Zero Beams 0 0%
Number of Flagged Beams 832845 1.03%

Navigation Totals

Total Time: 96.4196 hours
Total Track Length: 1878.5303 km
Average Speed: 19.483 km/hr (10.5200 knots)

Cruise Bounds

Northern Extent: 30.034086
Southern Extent: 25.98824
Western Extent: -94.49871
Eastern Extent: -84.80549

Limits

Minimum Sonar Depth 4.6875 Maximum Sonar Depth 6.8539
Minimum Altitude 16.8672 Maximum Altitude 3432.1055
Minimum Depth 15.6117 Maximum Depth 3566.7651

File Information

Full Resolution Bathymetry as collected (raw): 132

Files File Size Description
0000_20140521_235308_Atlantis.all.mb58.gz 7.36MB Kongsberg multibeam vendor format
0000_20140606_060642_Atlantis.all.mb58.gz 3.08MB Kongsberg multibeam vendor format
0001_20140521_235427_Atlantis.all.mb58.gz 2.05MB Kongsberg multibeam vendor format
0002_20140521_235449_Atlantis.all.mb58.gz 2.09MB Kongsberg multibeam vendor format
0003_20140521_235512_Atlantis.all.mb58.gz 3.91MB Kongsberg multibeam vendor format
0004_20140521_235553_Atlantis.all.mb58.gz 5.76MB Kongsberg multibeam vendor format
0005_20140521_235655_Atlantis.all.mb58.gz 11.34MB Kongsberg multibeam vendor format
0006_20140521_235857_Atlantis.all.mb58.gz 2.08MB Kongsberg multibeam vendor format
0007_20140521_235920_Atlantis.all.mb58.gz 409.5KB Kongsberg multibeam vendor format
0008_20140522_001642_Atlantis.all.mb58.gz 11.20MB Kongsberg multibeam vendor format
0009_20140522_001843_Atlantis.all.mb58.gz 9.46MB Kongsberg multibeam vendor format
0010_20140522_002026_Atlantis.all.mb58.gz 128.30MB Kongsberg multibeam vendor format
0011_20140522_004359_Atlantis.all.mb58.gz 32.75MB Kongsberg multibeam vendor format
0012_20140522_005110_Atlantis.all.mb58.gz 30.54MB Kongsberg multibeam vendor format
0013_20140522_005832_Atlantis.all.mb58.gz 6.69MB Kongsberg multibeam vendor format
0014_20140522_010015_Atlantis.all.mb58.gz 9.19MB Kongsberg multibeam vendor format
0015_20140522_010237_Atlantis.all.mb58.gz 50.71MB Kongsberg multibeam vendor format
0016_20140522_011659_Atlantis.all.mb58.gz 21.05MB Kongsberg multibeam vendor format
0017_20140522_012301_Atlantis.all.mb58.gz 42.39MB Kongsberg multibeam vendor format
0018_20140522_014948_Atlantis.all.mb58.gz 207.14MB Kongsberg multibeam vendor format
0019_20140522_034948_Atlantis.all.mb58.gz 48.17MB Kongsberg multibeam vendor format
0020_20140522_042150_Atlantis.all.mb58.gz 148.45MB Kongsberg multibeam vendor format
0021_20140523_062248_Atlantis.all.mb58.gz 1.76MB Kongsberg multibeam vendor format
0022_20140523_213808_Atlantis.all.mb58.gz 28.39MB Kongsberg multibeam vendor format
0023_20140523_215842_Atlantis.all.mb58.gz 28.21MB Kongsberg multibeam vendor format
0024_20140523_221940_Atlantis.all.mb58.gz 97.31MB Kongsberg multibeam vendor format
0025_20140523_233545_Atlantis.all.mb58.gz 120.90MB Kongsberg multibeam vendor format
0026_20140524_213812_Atlantis.all.mb58.gz 42.96MB Kongsberg multibeam vendor format
0027_20140524_221216_Atlantis.all.mb58.gz 30.20MB Kongsberg multibeam vendor format
0028_20140524_223554_Atlantis.all.mb58.gz 103.17MB Kongsberg multibeam vendor format
0029_20140524_235343_Atlantis.all.mb58.gz 118.47MB Kongsberg multibeam vendor format
0030_20140525_011911_Atlantis.all.mb58.gz 13.61MB Kongsberg multibeam vendor format
0031_20140525_012837_Atlantis.all.mb58.gz 122.53MB Kongsberg multibeam vendor format
0032_20140525_025114_Atlantis.all.mb58.gz 83.76MB Kongsberg multibeam vendor format
0033_20140525_034457_Atlantis.all.mb58.gz 22.84MB Kongsberg multibeam vendor format
0034_20140525_035943_Atlantis.all.mb58.gz 8.12MB Kongsberg multibeam vendor format
0035_20140525_040449_Atlantis.all.mb58.gz 193.85MB Kongsberg multibeam vendor format
0036_20140525_060445_Atlantis.all.mb58.gz 115.90MB Kongsberg multibeam vendor format
0037_20140525_071343_Atlantis.all.mb58.gz 244.91MB Kongsberg multibeam vendor format
0038_20140525_091341_Atlantis.all.mb58.gz 144.75MB Kongsberg multibeam vendor format
0039_20140529_190713_Atlantis.all.mb58.gz 12.65MB Kongsberg multibeam vendor format
0040_20140529_191516_Atlantis.all.mb58.gz 168.49MB Kongsberg multibeam vendor format
0041_20140529_211513_Atlantis.all.mb58.gz 38.85MB Kongsberg multibeam vendor format
0042_20140529_214235_Atlantis.all.mb58.gz 51.86MB Kongsberg multibeam vendor format
0043_20140529_222024_Atlantis.all.mb58.gz 159.57MB Kongsberg multibeam vendor format
0044_20140530_002017_Atlantis.all.mb58.gz 46.24MB Kongsberg multibeam vendor format
0045_20140530_005524_Atlantis.all.mb58.gz 50.78MB Kongsberg multibeam vendor format
0046_20140530_013553_Atlantis.all.mb58.gz 45.40MB Kongsberg multibeam vendor format
0047_20140530_021417_Atlantis.all.mb58.gz 149.48MB Kongsberg multibeam vendor format
0048_20140530_041403_Atlantis.all.mb58.gz 72.54MB Kongsberg multibeam vendor format
0049_20140530_051022_Atlantis.all.mb58.gz 101.07MB Kongsberg multibeam vendor format
0050_20140530_062905_Atlantis.all.mb58.gz 94.85MB Kongsberg multibeam vendor format
0051_20140530_074407_Atlantis.all.mb58.gz 61.73MB Kongsberg multibeam vendor format
0052_20140530_083228_Atlantis.all.mb58.gz 54.78MB Kongsberg multibeam vendor format
0053_20140530_091455_Atlantis.all.mb58.gz 156.52MB Kongsberg multibeam vendor format
0054_20140530_111446_Atlantis.all.mb58.gz 153.68MB Kongsberg multibeam vendor format
0055_20140530_131448_Atlantis.all.mb58.gz 3.17MB Kongsberg multibeam vendor format
0056_20140530_131716_Atlantis.all.mb58.gz 152.19MB Kongsberg multibeam vendor format
0057_20140530_151713_Atlantis.all.mb58.gz 18.11MB Kongsberg multibeam vendor format
0058_20140601_222328_Atlantis.all.mb58.gz 152.32MB Kongsberg multibeam vendor format
0059_20140602_002325_Atlantis.all.mb58.gz 31.45MB Kongsberg multibeam vendor format
0060_20140602_004734_Atlantis.all.mb58.gz 161.65MB Kongsberg multibeam vendor format
0061_20140602_024724_Atlantis.all.mb58.gz 102.32MB Kongsberg multibeam vendor format
0062_20140602_040201_Atlantis.all.mb58.gz 102.88MB Kongsberg multibeam vendor format
0063_20140602_051617_Atlantis.all.mb58.gz 54.63MB Kongsberg multibeam vendor format
0064_20140602_055556_Atlantis.all.mb58.gz 143.35MB Kongsberg multibeam vendor format
0065_20140602_074217_Atlantis.all.mb58.gz 42.33MB Kongsberg multibeam vendor format
0066_20140603_054140_Atlantis.all.mb58.gz 3.06MB Kongsberg multibeam vendor format
0066_20140606_060743_Atlantis.all.mb58.gz 17.95MB Kongsberg multibeam vendor format
0067_20140603_061634_Atlantis.all.mb58.gz 2.01MB Kongsberg multibeam vendor format
0067_20140606_061051_Atlantis.all.mb58.gz 93.32MB Kongsberg multibeam vendor format
0068_20140603_063701_Atlantis.all.mb58.gz 164.91MB Kongsberg multibeam vendor format
0068_20140606_063014_Atlantis.all.mb58.gz 55.93MB Kongsberg multibeam vendor format
0069_20140603_083701_Atlantis.all.mb58.gz 174.12MB Kongsberg multibeam vendor format
0069_20140606_070814_Atlantis.all.mb58.gz 111.33MB Kongsberg multibeam vendor format
0070_20140603_103703_Atlantis.all.mb58.gz 40.36MB Kongsberg multibeam vendor format
0070_20140606_082241_Atlantis.all.mb58.gz 150.31MB Kongsberg multibeam vendor format
0071_20140604_120346_Atlantis.all.mb58.gz 34.52MB Kongsberg multibeam vendor format
0071_20140606_102229_Atlantis.all.mb58.gz 7.93MB Kongsberg multibeam vendor format
0072_20140604_122251_Atlantis.all.mb58.gz 217.50MB Kongsberg multibeam vendor format
0072_20140606_102812_Atlantis.all.mb58.gz 77.96MB Kongsberg multibeam vendor format
0073_20140604_142248_Atlantis.all.mb58.gz 209.97MB Kongsberg multibeam vendor format
0073_20140609_120615_Atlantis.all.mb58.gz 60.93MB Kongsberg multibeam vendor format
0074_20140604_160913_Atlantis.all.mb58.gz 124.59MB Kongsberg multibeam vendor format
0074_20140609_132427_Atlantis.all.mb58.gz 2.83MB Kongsberg multibeam vendor format
0075_20140604_165855_Atlantis.all.mb58.gz 286.27MB Kongsberg multibeam vendor format
0075_20140609_132806_Atlantis.all.mb58.gz 25.45MB Kongsberg multibeam vendor format
0076_20140604_185854_Atlantis.all.mb58.gz 140.36MB Kongsberg multibeam vendor format
0076_20140609_140108_Atlantis.all.mb58.gz 79.35MB Kongsberg multibeam vendor format
0077_20140604_201048_Atlantis.all.mb58.gz 401.76MB Kongsberg multibeam vendor format
0077_20140609_154507_Atlantis.all.mb58.gz 53.01MB Kongsberg multibeam vendor format
0078_20140606_014816_Atlantis.all.mb58.gz 8.30MB Kongsberg multibeam vendor format
0078_20140609_165502_Atlantis.all.mb58.gz 34.03MB Kongsberg multibeam vendor format
0079_20140606_054207_Atlantis.all.mb58.gz 6.28MB Kongsberg multibeam vendor format
0079_20140609_173959_Atlantis.all.mb58.gz 87.61MB Kongsberg multibeam vendor format
0080_20140606_054524_Atlantis.all.mb58.gz 206.0KB Kongsberg multibeam vendor format
0080_20140609_193557_Atlantis.all.mb58.gz 9.02MB Kongsberg multibeam vendor format
0081_20140606_054629_Atlantis.all.mb58.gz 1.52MB Kongsberg multibeam vendor format
0081_20140609_194754_Atlantis.all.mb58.gz 19.83MB Kongsberg multibeam vendor format
0082_20140606_054825_Atlantis.all.mb58.gz 57.33MB Kongsberg multibeam vendor format
0082_20140609_201411_Atlantis.all.mb58.gz 18.41MB Kongsberg multibeam vendor format
0083_20140609_203835_Atlantis.all.mb58.gz 42.84MB Kongsberg multibeam vendor format
0084_20140609_213521_Atlantis.all.mb58.gz 9.52MB Kongsberg multibeam vendor format
0085_20140609_214758_Atlantis.all.mb58.gz 10.93MB Kongsberg multibeam vendor format
0086_20140609_220228_Atlantis.all.mb58.gz 24.82MB Kongsberg multibeam vendor format
0087_20140609_223525_Atlantis.all.mb58.gz 18.13MB Kongsberg multibeam vendor format
0088_20140609_225929_Atlantis.all.mb58.gz 8.37MB Kongsberg multibeam vendor format
0089_20140609_231036_Atlantis.all.mb58.gz 9.92MB Kongsberg multibeam vendor format
0090_20140609_232346_Atlantis.all.mb58.gz 9.78MB Kongsberg multibeam vendor format
0091_20140609_233646_Atlantis.all.mb58.gz 5.54MB Kongsberg multibeam vendor format
0092_20140609_234407_Atlantis.all.mb58.gz 5.66MB Kongsberg multibeam vendor format
0093_20140609_235138_Atlantis.all.mb58.gz 10.02MB Kongsberg multibeam vendor format
0094_20140610_000457_Atlantis.all.mb58.gz 2.83MB Kongsberg multibeam vendor format
0095_20140610_000842_Atlantis.all.mb58.gz 7.08MB Kongsberg multibeam vendor format
0096_20140610_001807_Atlantis.all.mb58.gz 24.21MB Kongsberg multibeam vendor format
0097_20140610_005019_Atlantis.all.mb58.gz 20.35MB Kongsberg multibeam vendor format
0098_20140610_011725_Atlantis.all.mb58.gz 5.68MB Kongsberg multibeam vendor format
0099_20140610_012458_Atlantis.all.mb58.gz 11.74MB Kongsberg multibeam vendor format
0100_20140610_014035_Atlantis.all.mb58.gz 12.87MB Kongsberg multibeam vendor format
0101_20140610_015742_Atlantis.all.mb58.gz 23.92MB Kongsberg multibeam vendor format
0102_20140610_022931_Atlantis.all.mb58.gz 59.10MB Kongsberg multibeam vendor format
0103_20140612_054323_Atlantis.all.mb58.gz 20.61MB Kongsberg multibeam vendor format
0104_20140612_061039_Atlantis.all.mb58.gz 34.87MB Kongsberg multibeam vendor format
0105_20140612_074922_Atlantis.all.mb58.gz 63.22MB Kongsberg multibeam vendor format
0106_20140612_091259_Atlantis.all.mb58.gz 90.54MB Kongsberg multibeam vendor format
0107_20140612_111242_Atlantis.all.mb58.gz 90.84MB Kongsberg multibeam vendor format
0108_20140612_131249_Atlantis.all.mb58.gz 3.68MB Kongsberg multibeam vendor format
0109_20140612_131741_Atlantis.all.mb58.gz 6.38MB Kongsberg multibeam vendor format
0110_20140612_132607_Atlantis.all.mb58.gz 37.46MB Kongsberg multibeam vendor format
0111_20140612_220829_Atlantis.all.mb58.gz 65.22MB Kongsberg multibeam vendor format
9999.all.mb58.gz 0.86MB Kongsberg multibeam vendor format
9999_140610034813_tmp.all.mb58.gz 122.9KB Kongsberg multibeam vendor format

Metadata Files: 2

Files File Size Description
AT26-15_Multibeam.xml NGDC created ISO metadata
em122_bag_info.tar.gz 11.1KB Additional cruise information

Water Column Sonar Data

Water Column Sonar Data Available: WCSD Map Viewer